Preview of NWS' New Version of Forecast
This preview is not operational and should not be used for support decisions.

Regional Weather Roundup (RWR)

Issued by National Weather Service (NWS)

                            
000
ASUS45 KCYS 171110
RWRWY 

WYOMING REGIONAL WEATHER ROUNDUP
NATIONAL WEATHER SERVICE CHEYENNE WY
500 AM MDT SAT AUG 17 2019

NOTE:  "FAIR" INDICATES FEW OR NO CLOUDS BELOW 12,000 FEET
WITH NO SIGNIFICANT WEATHER AND/OR OBSTRUCTIONS TO VISIBILITY.

WYZ001-171200-
YELLOWSTONE NATIONAL PARK
  
CITY           SKY/WX    TMP DP  RH WIND       PRES   REMARKS
LK YELLOWSTONE   N/A     39  36  89 NW3       30.07S                  
W YELLOWSTONE  NOT AVBL                                               

$$
WYZ002>013-054>058-071-098>099-171200-
NORTHERN WYOMING
  
CITY           SKY/WX    TMP DP  RH WIND       PRES   REMARKS
JACKSON        FAIR      34  30  85 N5        30.01F WCI  30          
CODY           FAIR      54  43  66 N5        29.92S                  
GREYBULL       FAIR      56  45  66 MISG      29.82F                  
WORLAND        FAIR      52  44  74 E3        29.83F                  
SHERIDAN       MOCLDY    59  43  55 CALM      29.85R                  
BUFFALO        FAIR      59  40  49 S6        29.87F                  
GILLETTE       FAIR      56  44  64 SE5       29.83F                  
HULETT         FAIR      52  43  71 SW6       29.86                   
NEWCASTLE      FAIR      61  52  72 SE3       29.85                   

$$
WYZ014>020-022>026-101>103-171200-
CENTRAL WYOMING
  
CITY           SKY/WX    TMP DP  RH WIND       PRES   REMARKS
BIG PINEY      FAIR      37  23  56 E6        30.07F WCI  32          
PINEDALE       FAIR      32  28  86 W5        30.09  WCI  27          
DUBOIS         FAIR      43  28  56 W12       30.02                   
LANDER         FAIR      60  16  18 SW3       29.93F                  
RIVERTON       FAIR      54  30  40 SW10      29.92F                  
CASPER         FAIR      51  40  65 SW9       29.91F                  
DOUGLAS        MOCLDY    54  52  93 NW5       29.89S                  

$$
WYZ021-027>030-104>119-171200-
SOUTHERN WYOMING
  
CITY           SKY/WX    TMP DP  RH WIND       PRES   REMARKS
EVANSTON       FAIR      53  33  46 VRB5      30.09S                  
KEMMERER       FAIR      46  30  53 CALM      30.10                   
ROCK SPRINGS   FAIR      54  29  38 S5        30.05F                  
DIXON          FAIR      46  31  56 SE14G22   30.09S                  
RAWLINS        FAIR      56  24  29 W12       30.03F                  
SARATOGA       FAIR      45  28  53 S6        30.07F                  
LARAMIE        FAIR      46  30  53 W10       30.06F                  
CHEYENNE       FAIR      58  33  39 W9        29.99S                  
TORRINGTON     FAIR      55  55 100 NW5       29.83S                  
PINE BLUFFS    FAIR      55  52  88 SW9       29.93S                  

$$